"startDT [UTC]","vpos","CH4 [ppm]","stdev(CH4) [ppm]","CO2 [ppm]","stdev(CO2) [ppm]","H2O_reported [%]","stdev(H2O_reported)","CavityPressure [torr]","CavityTemp [C]","OutletValve","CH4_dry [ppm]","CO2_dry [ppm]","DasTemp [C]","EtalonTemp [C]","WarmBoxTemp [C]","MPVPosition","T_ECpre [C]","T_EC1 [C]","T_EC2 [C]","p_inlet [hPa]","p_in [hPa]","p_out [hPa]","T_inlet [C]","RH_inlet [%]","dwpt_inlet [C]","T_vent [C]","RH_vent [%]","dwpt_vent [C]","flow_vent [l min-1]","flow_inlet [l min-1]","dwpt_sample [C]","T_room [C]"
2015-08-05 00:00:00,3.0,1.87437,0.00893,394.538,5.536,0.2848,0.3836,139.666,45.000,31150.85040,1.88204,395.742,32.499,45.068,45.000,0.00,0.10,-272.74,-272.80,-5,470,-4,23.0,29.3,4.2,22.8,30.0,4.3,5.73,2.01,2.6,27.2
2015-08-05 00:01:00,3.0,1.87466,0.00029,396.817,0.038,0.0474,0.0017,139.998,45.000,30945.40620,1.87549,397.046,32.495,45.068,45.000,0.00,0.10,-272.74,-272.79,-6,470,-4,23.0,29.3,4.2,22.8,30.1,4.4,5.73,1.87,2.6,27.1
2015-08-05 00:02:00,3.0,1.87479,0.00038,397.028,0.113,0.0409,0.0035,139.999,45.000,30888.43927,1.87557,397.216,32.493,45.068,45.000,0.00,0.10,-272.73,-272.79,-6,471,-5,23.0,29.1,4.1,22.8,30.0,4.3,5.73,1.83,2.6,27.1
2015-08-05 00:03:00,3.0,1.87494,0.00035,397.284,0.044,0.0331,0.0033,139.998,45.000,30843.55990,1.87553,397.441,32.462,45.068,45.000,0.00,0.10,-272.74,-272.80,-6,471,-5,23.1,29.1,4.1,22.8,29.9,4.3,5.73,1.88,2.6,27.1
2015-08-05 00:04:00,3.0,1.87511,0.00033,397.370,0.030,0.0257,0.0021,139.997,45.000,30807.83544,1.87557,397.490,32.447,45.068,45.000,0.00,0.10,-272.74,-272.80,-5,471,-5,23.1,29.2,4.2,22.8,30.0,4.3,5.73,1.96,2.6,27.1
2015-08-05 00:05:00,3.0,1.87510,0.00030,397.424,0.034,0.0199,0.0022,140.001,45.000,30781.26964,1.87549,397.518,32.443,45.068,45.000,0.00,0.10,-272.73,-272.79,-6,472,-5,23.0,29.2,4.1,22.8,30.0,4.3,5.73,1.95,2.6,27.1
2015-08-05 00:06:00,3.0,1.87519,0.00050,397.467,0.032,0.0162,0.0020,140.001,45.000,30755.92641,1.87546,397.545,32.443,45.069,45.000,0.00,0.10,-272.74,-272.79,-6,472,-5,23.1,29.2,4.1,22.9,29.9,4.3,5.73,1.87,2.6,27.1
2015-08-05 00:07:00,3.0,1.87540,0.00046,397.492,0.028,0.0128,0.0015,139.997,45.000,30735.83335,1.87562,397.551,32.438,45.068,45.000,0.00,0.10,-272.74,-272.80,-5,473,-5,23.1,29.3,4.2,22.9,30.1,4.4,5.73,1.83,2.6,27.0
2015-08-05 00:08:00,3.0,1.87534,0.00047,397.491,0.032,0.0114,0.0016,139.996,45.000,30719.98199,1.87558,397.545,32.438,45.068,45.000,0.00,0.10,-272.73,-272.79,-5,474,-5,23.1,29.4,4.3,22.9,30.2,4.5,5.73,1.88,2.6,27.1
2015-08-05 00:09:00,3.0,1.87524,0.00039,397.510,0.034,0.0091,0.0015,139.997,45.000,30709.63809,1.87539,397.554,32.438,45.069,45.000,0.00,0.10,-272.72,-272.79,-6,474,-5,23.0,29.5,4.3,22.9,30.3,4.5,5.73,1.95,2.6,27.1
2015-08-05 00:10:00,3.0,1.87542,0.00034,397.515,0.031,0.0075,0.0021,140.001,45.000,30701.52925,1.87555,397.553,32.441,45.068,45.000,0.00,0.10,-272.73,-272.80,-6,474,-4,23.1,29.5,4.3,22.8,30.3,4.5,5.73,1.95,2.6,27.0
2015-08-05 00:11:00,3.0,1.87533,0.00034,397.525,0.020,0.0069,0.0015,139.998,45.000,30691.98174,1.87544,397.556,32.435,45.068,45.000,0.00,0.10,-272.74,-272.79,-6,475,-6,23.1,29.6,4.3,22.9,30.4,4.5,5.73,1.87,2.6,27.0
2015-08-05 00:12:00,3.0,1.87552,0.00033,397.546,0.036,0.0072,0.0036,140.001,45.000,30686.65582,1.87567,397.583,32.438,45.068,45.000,0.00,0.10,-272.73,-272.79,-5,477,-4,23.1,29.7,4.4,22.9,30.4,4.6,5.73,1.83,2.6,27.0
2015-08-05 00:13:00,3.0,1.87554,0.00034,397.553,0.027,0.0062,0.0029,139.999,45.000,30680.98598,1.87565,397.581,32.434,45.068,45.000,0.00,0.10,-272.73,-272.80,-6,477,-6,23.1,29.7,4.4,22.9,30.5,4.6,5.73,1.87,2.6,27.0
2015-08-05 00:14:00,3.0,1.87547,0.00037,397.536,0.029,0.0054,0.0029,140.003,45.000,30680.20771,1.87559,397.563,32.436,45.068,45.000,0.00,0.10,-272.73,-272.80,-4,472,-4,23.1,29.9,4.5,22.9,30.7,4.7,5.73,1.95,2.6,27.0
2015-08-05 00:15:00,3.0,1.87570,0.00027,397.548,0.039,0.0048,0.0023,140.003,45.000,30677.14157,1.87576,397.568,32.425,45.068,45.000,0.00,0.10,-272.73,-272.79,-6,472,-3,23.1,29.8,4.4,22.9,30.6,4.6,5.73,1.96,2.6,27.1
2015-08-05 00:16:00,3.0,1.87555,0.00047,397.562,0.043,0.0052,0.0022,139.997,45.000,30673.57603,1.87562,397.586,32.425,45.068,45.000,0.00,0.10,-272.73,-272.79,-8,477,-6,23.1,29.9,4.5,22.9,30.7,4.7,5.73,1.87,2.6,27.1
2015-08-05 00:17:00,3.0,1.87564,0.00036,397.593,0.028,0.0044,0.0020,139.999,45.000,30672.21063,1.87577,397.614,32.429,45.068,45.000,0.00,0.10,-272.74,-272.80,-7,477,-5,23.1,30.2,4.6,22.9,30.9,4.8,5.73,1.83,2.6,27.1
2015-08-05 00:18:00,3.0,1.87546,0.00029,397.577,0.025,0.0042,0.0028,139.999,45.000,30670.58070,1.87554,397.598,32.436,45.068,45.000,0.00,0.10,-272.73,-272.80,-5,474,-5,23.1,30.2,4.7,22.9,31.1,4.9,5.73,1.88,2.6,27.1
2015-08-05 00:19:00,3.0,1.87565,0.00019,397.571,0.041,0.0040,0.0018,140.003,45.000,30669.06145,1.87573,397.592,32.434,45.068,45.000,0.00,0.10,-272.73,-272.79,-6,477,-4,23.1,30.4,4.8,22.9,31.1,4.9,5.73,1.95,2.6,27.1
2015-08-05 00:20:00,0.0,1.90288,0.00643,386.332,4.646,0.8938,0.3329,140.263,45.000,33816.05747,1.91784,390.770,32.438,45.068,45.000,0.00,0.10,-272.74,-272.79,-6,997,-5,23.1,30.4,4.8,22.9,31.3,5.0,5.73,2.02,2.6,27.1
2015-08-05 00:21:00,0.0,1.90033,0.00044,384.006,0.101,1.0695,0.0030,140.008,45.000,34023.00996,1.92107,389.115,32.435,45.068,45.000,0.00,0.10,-272.74,-272.79,-7,998,-5,23.1,30.4,4.8,22.9,31.3,5.0,5.73,1.94,2.6,27.2
2015-08-05 00:22:00,0.0,1.89950,0.00047,384.061,0.119,1.0718,0.0030,140.006,45.000,34086.63726,1.92024,389.190,32.437,45.068,45.000,0.00,0.10,-272.72,-272.79,-7,999,-5,23.1,30.3,4.7,22.9,31.2,5.0,5.73,1.90,2.6,27.1
2015-08-05 00:23:00,0.0,1.89959,0.00042,383.759,0.100,1.0855,0.0038,140.000,45.000,34133.72798,1.92060,388.952,32.438,45.068,45.000,0.00,0.10,-272.74,-272.80,-7,999,-4,23.1,30.6,4.9,22.9,31.4,5.1,5.73,1.87,2.6,27.2
2015-08-05 00:24:00,0.0,1.89989,0.00041,383.770,0.127,1.0882,0.0028,140.005,45.000,34172.78366,1.92097,388.966,32.441,45.068,45.000,0.00,0.10,-272.73,-272.80,-6,999,-4,23.1,30.5,4.8,22.9,31.5,5.1,5.73,1.89,2.6,27.1
2015-08-05 00:25:00,0.0,1.90009,0.00032,383.885,0.049,1.0825,0.0023,140.003,45.000,34205.11544,1.92100,389.064,32.460,45.068,45.000,0.00,0.10,-272.73,-272.79,-6,999,-5,23.1,30.4,4.8,22.9,31.3,5.0,5.73,1.92,2.6,27.1
2015-08-05 00:26:00,0.0,1.90026,0.00040,383.867,0.143,1.0823,0.0032,140.003,45.000,34232.00752,1.92125,389.050,32.444,45.068,45.000,0.00,0.10,-272.73,-272.79,-7,999,-5,23.1,30.4,4.8,22.9,31.2,5.0,5.73,1.96,2.6,27.1
2015-08-05 00:27:00,0.0,1.90008,0.00031,383.742,0.119,1.0883,0.0026,140.000,45.000,34253.22036,1.92111,388.933,32.441,45.068,45.000,0.00,0.10,-272.74,-272.80,-7,999,-5,23.2,30.5,4.9,22.9,31.4,5.1,5.73,1.97,2.6,27.1
2015-08-05 00:28:00,0.0,1.90069,0.00038,383.738,0.102,1.0835,0.0021,140.002,45.000,34273.88254,1.92169,388.922,32.446,45.068,45.000,0.00,0.10,-272.74,-272.80,-7,999,-5,23.1,30.3,4.8,22.9,31.3,5.0,5.73,1.94,2.6,27.1
2015-08-05 00:29:00,0.0,1.90027,0.00053,383.860,0.070,1.0811,0.0024,140.003,45.000,34291.69910,1.92120,389.031,32.441,45.068,45.000,0.00,0.10,-272.73,-272.79,-6,999,-5,23.1,30.3,4.7,22.9,31.2,5.0,5.73,1.90,2.6,27.1
2015-08-05 00:30:00,0.0,1.90078,0.00038,383.814,0.120,1.0768,0.0021,139.999,45.000,34302.59321,1.92162,388.962,32.439,45.068,45.000,0.00,0.10,-272.74,-272.80,-6,999,-5,23.1,30.1,4.6,22.9,31.1,4.9,5.73,1.87,2.6,27.2
2015-08-05 00:31:00,0.0,1.90068,0.00036,383.826,0.086,1.0690,0.0030,139.999,45.000,34314.48446,1.92137,388.930,32.440,45.068,45.000,0.00,0.10,-272.74,-272.80,-7,1000,-5,23.2,29.8,4.5,22.9,30.8,4.8,5.73,1.89,2.6,27.2
2015-08-05 00:32:00,0.0,1.90099,0.00029,384.073,0.173,1.0568,0.0044,139.998,45.000,34323.38176,1.92146,389.120,32.438,45.068,45.000,0.00,0.10,-272.73,-272.79,-7,999,-5,23.1,29.5,4.3,22.9,30.5,4.6,5.73,1.92,2.6,27.2
2015-08-05 00:33:00,0.0,1.90094,0.00040,383.952,0.090,1.0557,0.0020,140.002,45.000,34333.51288,1.92139,389.002,32.438,45.068,45.000,0.00,0.10,-272.73,-272.79,-6,999,-5,23.1,29.5,4.3,22.9,30.4,4.6,5.73,1.96,2.6,27.1
2015-08-05 00:34:00,0.0,1.90095,0.00046,384.079,0.082,1.0542,0.0027,140.001,45.000,34342.06892,1.92134,389.116,32.438,45.068,45.000,0.00,0.10,-272.74,-272.80,-6,1000,-5,23.1,29.4,4.3,22.9,30.3,4.6,5.73,1.97,2.6,27.1
2015-08-05 00:35:00,0.0,1.90068,0.00030,384.026,0.117,1.0536,0.0021,140.002,45.000,34347.05329,1.92110,389.055,32.436,45.068,45.000,0.00,0.10,-272.73,-272.79,-6,1000,-5,23.1,29.4,4.3,22.9,30.3,4.6,5.73,1.94,2.6,27.2
2015-08-05 00:36:00,0.0,1.90047,0.00039,384.114,0.166,1.0539,0.0026,139.999,45.000,34351.45413,1.92084,389.147,32.434,45.068,45.000,0.00,0.10,-272.73,-272.79,-7,1000,-5,23.1,29.4,4.3,22.9,30.3,4.5,5.73,1.90,2.6,27.2
2015-08-05 00:37:00,0.0,1.90051,0.00037,384.149,0.136,1.0478,0.0019,140.002,45.000,34359.01812,1.92081,389.171,32.442,45.068,45.000,0.00,0.10,-272.73,-272.80,-7,1000,-5,23.1,29.2,4.2,22.9,30.1,4.5,5.73,1.86,2.6,27.1
2015-08-05 00:38:00,0.0,1.90084,0.00040,383.972,0.079,1.0472,0.0038,140.001,45.000,34361.91724,1.92110,388.970,32.445,45.068,45.000,0.00,0.10,-272.73,-272.79,-7,1000,-5,23.1,29.1,4.2,22.9,30.0,4.4,5.73,1.88,2.6,27.2
2015-08-05 00:39:00,0.0,1.90059,0.00051,384.244,0.045,1.0409,0.0024,139.998,45.000,34365.20706,1.92069,389.214,32.444,45.068,45.000,0.00,0.10,-272.72,-272.79,-6,1000,-5,23.1,29.0,4.1,22.9,29.9,4.4,5.73,1.93,2.6,27.1
2015-08-05 00:40:00,0.0,1.90071,0.00051,384.190,0.054,1.0350,0.0015,140.000,45.000,34367.85230,1.92072,389.137,32.441,45.068,45.000,0.00,0.10,-272.73,-272.79,-6,1000,-5,23.1,28.8,4.0,22.9,29.7,4.3,5.73,1.97,2.6,27.1
2015-08-05 00:41:00,0.0,1.90060,0.00028,384.269,0.121,1.0343,0.0017,140.002,45.000,34373.56547,1.92065,389.217,32.439,45.068,45.000,0.00,0.10,-272.74,-272.80,-7,1000,-5,23.1,28.8,4.0,22.9,29.7,4.3,5.73,1.97,2.6,27.1
2015-08-05 00:42:00,0.0,1.90133,0.00053,384.212,0.113,1.0319,0.0030,140.001,45.000,34372.96886,1.92121,389.132,32.438,45.068,45.000,0.00,0.10,-272.73,-272.79,-7,1000,-5,23.1,28.7,4.0,22.9,29.6,4.2,5.73,1.93,2.6,27.1
2015-08-05 00:43:00,0.0,1.90174,0.00041,384.161,0.125,1.0308,0.0018,140.001,45.000,34376.64713,1.92163,389.090,32.437,45.068,45.000,0.00,0.10,-272.73,-272.80,-6,1000,-5,23.1,28.6,3.9,22.9,29.5,4.2,5.73,1.89,2.6,27.2
2015-08-05 00:44:00,0.0,1.90199,0.00022,384.218,0.102,1.0304,0.0025,139.998,45.000,34376.29690,1.92193,389.140,32.438,45.068,45.000,0.00,0.10,-272.74,-272.80,-6,1000,-5,23.1,28.7,3.9,22.9,29.5,4.2,5.73,1.87,2.6,27.2
2015-08-05 00:45:00,0.0,1.90251,0.00035,384.119,0.049,1.0320,0.0018,139.998,45.000,34375.67639,1.92247,389.050,32.439,45.068,45.000,0.00,0.10,-272.73,-272.79,-6,1000,-5,23.1,28.6,4.0,22.9,29.5,4.2,5.73,1.89,2.6,27.1
2015-08-05 00:46:00,0.0,1.90238,0.00036,384.069,0.085,1.0296,0.0019,139.999,45.000,34379.16620,1.92232,388.990,32.442,45.068,45.000,0.00,0.10,-272.73,-272.79,-7,1000,-5,23.1,28.6,3.9,22.9,29.5,4.2,5.73,1.94,2.6,27.1
2015-08-05 00:47:00,0.0,1.90231,0.00027,384.151,0.128,1.0299,0.0023,139.998,45.000,34380.50964,1.92224,389.059,32.439,45.068,45.000,0.00,0.10,-272.74,-272.79,-7,1000,-5,23.1,28.6,3.9,22.9,29.5,4.2,5.73,1.97,2.6,27.2
2015-08-05 00:48:00,0.0,1.90243,0.00034,384.150,0.093,1.0277,0.0024,139.999,45.000,34383.22967,1.92233,389.065,32.442,45.068,45.000,0.00,0.10,-272.73,-272.79,-6,1000,-5,23.1,28.6,3.9,22.9,29.4,4.2,5.73,1.96,2.6,27.1
2015-08-05 00:49:00,0.0,1.90215,0.00048,384.134,0.064,1.0312,0.0013,139.999,45.000,34385.74929,1.92211,389.056,32.438,45.068,45.000,0.00,0.10,-272.73,-272.79,-6,1000,-5,23.1,28.7,4.0,22.9,29.5,4.2,5.73,1.92,2.6,27.2
2015-08-05 00:50:00,0.0,1.90176,0.00039,384.223,0.075,1.0328,0.0024,139.999,45.000,34384.15926,1.92170,389.156,32.438,45.068,45.000,0.00,0.10,-272.73,-272.79,-6,1000,-5,23.1,28.7,4.0,22.9,29.6,4.2,5.73,1.88,2.6,27.2
2015-08-05 00:51:00,0.0,1.90215,0.00033,384.152,0.047,1.0337,0.0018,139.999,45.000,34386.39909,1.92219,389.089,32.438,45.068,45.000,0.00,0.10,-272.73,-272.80,-7,1000,-5,23.1,28.7,4.0,22.9,29.6,4.2,5.73,1.87,2.6,27.2
2015-08-05 00:52:00,0.0,1.90233,0.00023,384.148,0.044,1.0327,0.0021,139.999,45.000,34385.69532,1.92227,389.079,32.438,45.068,45.000,0.00,0.10,-272.73,-272.80,-7,1000,-5,23.1,28.7,4.0,22.9,29.6,4.2,5.73,1.90,2.6,27.1
2015-08-05 00:53:00,0.0,1.90252,0.00036,384.154,0.038,1.0350,0.0022,139.996,45.000,34384.24237,1.92255,389.097,32.442,45.068,45.000,0.00,0.10,-272.73,-272.79,-6,999,-5,23.1,28.8,4.0,22.9,29.6,4.2,5.73,1.95,2.6,27.1
2015-08-05 00:54:00,0.0,1.90230,0.00027,384.207,0.106,1.0377,0.0023,139.999,45.000,34385.16445,1.92243,389.168,32.441,45.068,45.000,0.00,0.10,-272.74,-272.80,-6,1000,-5,23.1,28.9,4.1,22.9,29.7,4.3,5.73,1.97,2.6,27.1
2015-08-05 00:55:00,0.0,1.90165,0.00036,384.042,0.022,1.0415,0.0021,139.997,45.000,34387.50199,1.92185,389.017,32.447,45.068,45.000,0.00,0.10,-272.73,-272.79,-6,1000,-5,23.1,29.0,4.1,22.9,29.8,4.3,5.73,1.96,2.6,27.2
2015-08-05 00:56:00,0.0,1.90212,0.00046,384.066,0.091,1.0416,0.0022,140.001,45.000,34387.94355,1.92221,389.044,32.444,45.068,45.000,0.00,0.10,-272.73,-272.79,-7,1000,-5,23.1,29.0,4.1,22.9,29.8,4.3,5.73,1.92,2.6,27.1
2015-08-05 00:57:00,0.0,1.90241,0.00053,384.153,0.079,1.0435,0.0028,140.002,45.000,34386.74091,1.92264,389.131,32.439,45.068,45.000,0.00,0.10,-272.74,-272.79,-7,1000,-5,23.1,29.0,4.1,22.9,29.8,4.3,5.73,1.88,2.6,27.2
2015-08-05 00:58:00,0.0,1.90242,0.00033,384.263,0.048,1.0432,0.0023,140.001,45.000,34388.24252,1.92258,389.252,32.438,45.068,45.000,0.00,0.10,-272.74,-272.79,-6,1000,-5,23.1,29.0,4.1,22.9,29.8,4.3,5.73,1.87,2.6,27.2
2015-08-05 00:59:00,0.0,1.90222,0.00034,384.270,0.059,1.0442,0.0026,139.996,45.000,34387.79988,1.92248,389.255,32.442,45.068,45.000,0.00,0.10,-272.73,-272.79,-6,1000,-5,23.1,29.1,4.2,22.9,29.9,4.4,5.73,1.90,2.6,27.2
2015-08-05 01:00:00,0.0,1.90199,0.00041,384.296,0.061,1.0454,0.0023,140.001,45.000,34390.90203,1.92223,389.295,32.444,45.068,45.000,0.00,0.10,-272.73,-272.79,-7,1000,-5,23.1,29.1,4.2,22.9,29.9,4.4,5.73,1.95,2.6,27.2
2015-08-05 01:01:00,0.0,1.90218,0.00038,384.119,0.084,1.0489,0.0027,139.999,45.000,34386.41831,1.92247,389.134,32.446,45.068,45.000,0.00,0.10,-272.73,-272.80,-7,1000,-5,23.1,29.2,4.2,22.9,30.0,4.4,5.73,1.97,2.6,27.1
2015-08-05 01:02:00,0.0,1.90219,0.00042,384.319,0.078,1.0506,0.0020,140.001,45.000,34386.84918,1.92253,389.341,32.440,45.068,45.000,0.00,0.10,-272.73,-272.79,-7,1000,-5,23.1,29.2,4.2,22.9,30.1,4.5,5.73,1.96,2.6,27.1
2015-08-05 01:03:00,0.0,1.90225,0.00033,384.212,0.080,1.0501,0.0021,139.999,45.000,34386.63986,1.92257,389.234,32.446,45.068,45.000,0.00,0.10,-272.73,-272.79,-6,1000,-5,23.1,29.2,4.2,22.9,30.1,4.4,5.73,1.91,2.6,27.1
2015-08-05 01:04:00,0.0,1.90283,0.00023,384.251,0.104,1.0481,0.0018,139.997,45.000,34385.54237,1.92308,389.258,32.472,45.068,45.000,0.00,0.10,-272.74,-272.80,-6,1000,-5,23.1,29.2,4.2,22.9,30.1,4.4,5.73,1.87,2.6,27.2
2015-08-05 01:05:00,0.0,1.90315,0.00042,384.301,0.058,1.0457,0.0023,140.005,45.000,34387.06132,1.92338,389.298,32.494,45.068,45.000,0.00,0.10,-272.73,-272.80,-7,1000,-5,23.1,29.1,4.1,22.9,29.9,4.4,5.73,1.88,2.6,27.1
2015-08-05 01:06:00,0.0,1.90332,0.00043,384.328,0.046,1.0429,0.0019,140.001,45.000,34387.27093,1.92356,389.315,32.479,45.068,45.000,0.00,0.10,-272.72,-272.79,-7,1000,-5,23.1,29.0,4.1,22.9,29.8,4.3,5.73,1.91,2.6,27.0
2015-08-05 01:07:00,0.0,1.90332,0.00030,384.232,0.061,1.0426,0.0015,140.002,45.000,34387.12374,1.92350,389.222,32.478,45.068,45.000,0.00,0.10,-272.73,-272.79,-7,1000,-5,23.1,29.0,4.1,22.9,29.8,4.3,5.73,1.95,2.6,27.1
2015-08-05 01:08:00,0.0,1.90337,0.00038,384.160,0.096,1.0411,0.0024,140.000,45.000,34387.40036,1.92356,389.129,32.488,45.068,45.000,0.00,0.10,-272.74,-272.80,-6,1000,-5,23.1,29.0,4.1,22.9,29.8,4.3,5.73,1.97,2.6,27.1
2015-08-05 01:09:00,0.0,1.90393,0.00047,384.302,0.052,1.0387,0.0020,140.003,45.000,34387.17089,1.92399,389.266,32.492,45.068,45.000,0.00,0.10,-272.73,-272.79,-6,1000,-5,23.1,28.8,4.0,22.9,29.7,4.3,5.73,1.95,2.6,27.2
2015-08-05 01:10:00,0.0,1.90370,0.00036,384.292,0.075,1.0368,0.0026,140.000,45.000,34386.58062,1.92383,389.245,32.483,45.068,45.000,0.00,0.10,-272.73,-272.79,-7,1000,-5,23.1,28.8,4.0,22.9,29.7,4.3,5.73,1.90,2.6,27.2
2015-08-05 01:11:00,0.0,1.90372,0.00030,384.368,0.030,1.0370,0.0019,140.000,45.000,34386.20142,1.92379,389.325,32.483,45.068,45.000,0.00,0.10,-272.74,-272.80,-7,1000,-5,23.1,28.8,4.0,22.9,29.7,4.2,5.73,1.87,2.6,27.1
2015-08-05 01:12:00,0.0,1.90337,0.00034,384.337,0.062,1.0363,0.0021,140.000,45.000,34386.66183,1.92344,389.291,32.463,45.068,45.000,0.00,0.10,-272.73,-272.80,-7,1000,-5,23.1,28.8,4.0,22.9,29.7,4.3,5.73,1.88,2.6,27.1
2015-08-05 01:13:00,0.0,1.90379,0.00050,384.140,0.065,1.0372,0.0022,140.002,45.000,34388.13985,1.92385,389.103,32.465,45.068,45.000,0.00,0.10,-272.73,-272.79,-6,1000,-5,23.1,28.8,4.0,22.9,29.7,4.3,5.73,1.92,2.6,27.2
2015-08-05 01:14:00,0.0,1.90424,0.00033,384.147,0.122,1.0369,0.0028,139.997,45.000,34387.80183,1.92431,389.097,32.466,45.068,45.000,0.00,0.10,-272.74,-272.80,-6,1000,-5,23.1,28.8,4.0,22.9,29.7,4.2,5.73,1.96,2.6,27.1
2015-08-05 01:15:00,0.0,1.90427,0.00041,384.110,0.063,1.0354,0.0020,140.005,45.000,34390.19322,1.92430,389.060,32.462,45.068,45.000,0.00,0.10,-272.74,-272.80,-7,1000,-5,23.1,28.8,4.0,22.9,29.6,4.2,5.73,1.97,2.6,27.1
2015-08-05 01:16:00,0.0,1.90463,0.00048,384.333,0.104,1.0343,0.0024,139.996,45.000,34387.38991,1.92469,389.269,32.458,45.068,45.000,0.00,0.10,-272.73,-272.79,-7,1000,-5,23.1,28.7,4.0,22.9,29.6,4.2,5.73,1.94,2.6,27.1
2015-08-05 01:17:00,0.0,1.90461,0.00045,384.352,0.062,1.0338,0.0032,139.999,45.000,34387.99796,1.92464,389.290,32.454,45.068,45.000,0.00,0.10,-272.73,-272.79,-7,1000,-5,23.1,28.8,4.0,22.9,29.6,4.2,5.73,1.89,2.6,27.1
2015-08-05 01:18:00,0.0,1.90479,0.00028,384.252,0.098,1.0386,0.0027,140.002,45.000,34388.59796,1.92491,389.218,32.466,45.068,45.000,0.00,0.10,-272.74,-272.80,-6,1000,-5,23.1,28.9,4.1,22.9,29.7,4.3,5.73,1.87,2.6,27.1
2015-08-05 01:19:00,0.0,1.90484,0.00034,384.069,0.054,1.0438,0.0026,140.002,45.000,34388.40718,1.92505,389.058,32.467,45.068,45.000,0.00,0.10,-272.72,-272.79,-7,1000,-5,23.1,29.1,4.1,22.9,29.8,4.3,5.73,1.90,2.6,27.1
2015-08-05 01:20:00,0.0,1.90505,0.00050,384.143,0.050,1.0446,0.0022,139.996,45.000,34387.91007,1.92527,389.135,32.445,45.068,45.000,0.00,0.10,-272.73,-272.80,-7,1000,-5,23.1,29.1,4.2,22.9,29.9,4.3,5.73,1.94,2.6,27.1
2015-08-05 01:21:00,0.0,1.90536,0.00041,384.076,0.101,1.0452,0.0014,139.997,45.000,34386.38084,1.92564,389.069,32.438,45.068,45.000,0.00,0.10,-272.73,-272.80,-7,1000,-5,23.1,29.1,4.1,22.9,29.9,4.4,5.73,1.97,2.6,27.1
2015-08-05 01:22:00,0.0,1.90536,0.00021,384.220,0.071,1.0409,0.0024,140.000,45.000,34386.76374,1.92553,389.189,32.441,45.068,45.000,0.00,0.10,-272.73,-272.80,-6,1000,-5,23.1,29.0,4.1,22.9,29.8,4.3,5.73,1.97,2.6,27.1
2015-08-05 01:23:00,0.0,1.90574,0.00040,384.189,0.068,1.0411,0.0025,140.003,45.000,34385.15929,1.92589,389.170,32.441,45.068,45.000,0.00,0.10,-272.73,-272.79,-6,1000,-5,23.1,29.0,4.1,22.9,29.8,4.3,5.73,1.93,2.6,27.1
2015-08-05 01:24:00,0.0,1.90551,0.00032,384.291,0.086,1.0429,0.0023,139.997,45.000,34382.69103,1.92574,389.267,32.462,45.068,45.000,0.00,0.10,-272.74,-272.80,-6,1000,-5,23.1,29.0,4.1,22.9,29.8,4.3,5.73,1.88,2.6,27.2
2015-08-05 01:25:00,0.0,1.90569,0.00040,384.340,0.052,1.0421,0.0016,140.001,45.000,34384.16434,1.92593,389.327,32.464,45.068,45.000,0.00,0.10,-272.74,-272.79,-7,1000,-5,23.1,29.0,4.1,22.9,29.8,4.3,5.73,1.87,2.6,27.2
2015-08-05 01:26:00,0.0,1.90628,0.00044,384.134,0.061,1.0414,0.0016,139.999,45.000,34384.77331,1.92646,389.113,32.447,45.068,45.000,0.00,0.10,-272.73,-272.79,-7,1000,-5,23.1,29.0,4.1,22.9,29.8,4.3,5.73,1.90,2.6,27.2
2015-08-05 01:27:00,0.0,1.90635,0.00043,383.873,0.095,1.0419,0.0023,139.998,45.000,34382.38672,1.92651,388.855,32.441,45.068,45.000,0.00,0.10,-272.73,-272.79,-7,1000,-5,23.1,29.0,4.1,22.9,29.8,4.3,5.73,1.94,2.6,27.2
2015-08-05 01:28:00,0.0,1.90679,0.00032,383.822,0.167,1.0422,0.0015,140.003,45.000,34380.91224,1.92699,388.798,32.438,45.068,45.000,0.00,0.10,-272.73,-272.79,-6,1000,-5,23.1,29.0,4.1,22.9,29.8,4.3,5.73,1.97,2.6,27.2
2015-08-05 01:29:00,0.0,1.90654,0.00030,384.064,0.132,1.0399,0.0017,139.997,45.000,34378.87425,1.92675,389.022,32.438,45.068,45.000,0.00,0.10,-272.73,-272.79,-6,1000,-5,23.1,28.9,4.1,22.9,29.7,4.3,5.73,1.96,2.6,27.2
2015-08-05 01:30:00,0.0,1.90664,0.00042,383.955,0.069,1.0425,0.0032,139.997,45.000,34378.82466,1.92680,388.938,32.438,45.068,45.000,0.00,0.10,-272.73,-272.79,-7,1000,-5,23.1,29.0,4.1,22.9,29.8,4.3,5.73,1.92,2.6,27.2
2015-08-05 01:31:00,0.0,1.90671,0.00039,383.943,0.078,1.0463,0.0014,139.998,45.000,34382.01873,1.92708,388.942,32.436,45.068,45.000,0.00,0.10,-272.73,-272.80,-7,1000,-5,23.1,29.1,4.2,22.9,29.9,4.3,5.73,1.88,2.6,27.1
2015-08-05 01:32:00,0.0,1.90704,0.00035,384.033,0.079,1.0447,0.0016,139.998,45.000,34382.73247,1.92726,389.017,32.438,45.068,45.000,0.00,0.10,-272.73,-272.80,-6,1000,-5,23.1,29.1,4.1,22.9,29.9,4.4,5.73,1.87,2.6,27.1
2015-08-05 01:33:00,0.0,1.90705,0.00041,384.114,0.038,1.0455,0.0025,139.999,45.000,34381.54353,1.92732,389.110,32.438,45.068,45.000,0.00,0.10,-272.72,-272.80,-6,1000,-5,23.1,29.2,4.2,22.9,29.9,4.4,5.73,1.90,2.6,27.1
2015-08-05 01:34:00,0.0,1.90723,0.00038,384.128,0.044,1.0445,0.0031,140.006,45.000,34383.20472,1.92750,389.120,32.438,45.068,45.000,0.00,0.10,-272.73,-272.80,-7,1000,-5,23.1,29.1,4.1,22.9,29.9,4.4,5.73,1.95,2.6,27.2
2015-08-05 01:35:00,0.0,1.90744,0.00032,384.074,0.083,1.0418,0.0016,139.999,45.000,34380.59006,1.92766,389.054,32.438,45.068,45.000,0.00,0.10,-272.74,-272.80,-7,1000,-5,23.1,29.0,4.1,22.9,29.8,4.3,5.73,1.97,2.6,27.2
2015-08-05 01:36:00,0.0,1.90678,0.00036,384.120,0.060,1.0394,0.0029,139.997,45.000,34385.49377,1.92700,389.083,32.442,45.068,45.000,0.00,0.10,-272.74,-272.79,-7,1000,-5,23.1,29.0,4.1,22.9,29.8,4.3,5.73,1.95,2.6,27.1
2015-08-05 01:37:00,0.0,1.90710,0.00045,384.185,0.058,1.0366,0.0032,139.997,45.000,34385.11750,1.92720,389.138,32.438,45.068,45.000,0.00,0.10,-272.73,-272.79,-6,1000,-5,23.1,28.8,4.0,22.9,29.7,4.2,5.73,1.91,2.6,27.1
2015-08-05 01:38:00,0.0,1.90725,0.00046,384.252,0.060,1.0344,0.0011,139.994,45.000,34382.71989,1.92728,389.194,32.438,45.068,45.000,0.00,0.10,-272.74,-272.80,-6,1000,-5,23.1,28.8,4.0,22.9,29.6,4.2,5.73,1.87,2.6,27.1
2015-08-05 01:39:00,0.0,1.90734,0.00036,384.146,0.070,1.0377,0.0020,140.001,45.000,34385.55539,1.92747,389.106,32.438,45.068,45.000,0.00,0.10,-272.73,-272.79,-7,1000,-5,23.1,28.9,4.0,22.9,29.7,4.2,5.73,1.87,2.6,27.1
2015-08-05 01:40:00,0.0,1.90767,0.00033,383.912,0.119,1.0376,0.0013,140.002,45.000,34385.01465,1.92782,388.875,32.438,45.068,45.000,0.00,0.10,-272.73,-272.79,-7,1000,-5,23.1,28.9,4.0,22.9,29.7,4.2,5.73,1.91,2.6,27.2
2015-08-05 01:41:00,0.0,1.90753,0.00031,383.824,0.215,1.0366,0.0018,139.995,45.000,34384.90957,1.92764,388.757,32.447,45.068,45.000,0.00,0.10,-272.74,-272.79,-6,1000,-5,23.1,28.8,4.0,22.9,29.6,4.2,5.73,1.96,2.6,27.1
2015-08-05 01:42:00,0.0,1.90788,0.00041,383.972,0.133,1.0351,0.0019,140.005,45.000,34387.40928,1.92795,388.929,32.439,45.068,45.000,0.00,0.10,-272.74,-272.80,-6,1000,-5,23.1,28.8,4.0,22.9,29.6,4.2,5.73,1.97,2.6,27.1
2015-08-05 01:43:00,0.0,1.90825,0.00033,383.949,0.112,1.0382,0.0028,140.001,45.000,34386.25925,1.92840,388.904,32.442,45.068,45.000,0.00,0.10,-272.73,-272.79,-7,1000,-5,23.1,28.9,4.1,22.9,29.6,4.2,5.73,1.95,2.6,27.2
2015-08-05 01:44:00,0.0,1.90823,0.00045,383.665,0.197,1.0431,0.0026,139.997,45.000,34385.51501,1.92851,388.635,32.439,45.068,45.000,0.00,0.10,-272.73,-272.80,-7,1000,-5,23.1,29.1,4.1,22.9,29.9,4.3,5.73,1.89,2.6,27.2
2015-08-05 01:45:00,0.0,1.90864,0.00047,383.953,0.120,1.0411,0.0024,139.999,45.000,34383.97995,1.92880,388.931,32.441,45.068,45.000,0.00,0.10,-272.74,-272.80,-7,1000,-5,23.1,29.0,4.1,22.9,29.8,4.3,5.73,1.87,2.6,27.2
2015-08-05 01:46:00,0.0,1.90862,0.00038,383.738,0.084,1.0433,0.0023,139.998,45.000,34385.88427,1.92888,388.723,32.438,45.068,45.000,0.00,0.10,-272.73,-272.79,-7,1000,-5,23.1,29.1,4.1,22.9,29.9,4.3,5.73,1.89,2.6,27.2
2015-08-05 01:47:00,0.0,1.90874,0.00039,383.814,0.157,1.0454,0.0019,140.000,45.000,34386.08298,1.92906,388.792,32.435,45.068,45.000,0.00,0.10,-272.73,-272.79,-6,1000,-5,23.1,29.1,4.1,22.9,29.9,4.3,5.73,1.93,2.6,27.2